Location: Brienzwiler
(46.7508°N, 8.1014°E)
Time: 08:05:41
(UTC+00:00)

Cosmos 2344 - Pass Details

Date: 05 July 2020
Orbit: 1249 x 2993 km, 63.3° (Epoch: 05 August)

Event Time Altitude Azimuth Distance (km) Brightness Sun altitude
Exits shadow 22:16:04 21° 195° (SSW) 2,526 4.7 -18.5°
Maximum altitude 22:21:17 61° 121° (ESE) 1,412 3.6 -18.7°
Drops below altitude 10° 22:29:04 10° 44° (NE) 3,456 6.2 -19.1°
Sets 22:32:10 0° 41° (NE) 4,580 7.0 -19.3°
